Location: Manchester NH
(43.0000°N, 71.5000°W)
Time: 18:11:29
(UTC-04:00)

Amateur Radio Satellites - All Passes

Search period start: 17 October 2017 17:41
Search period end: 18 October 2017 17:41
Location: Manchester NH, 43.0000°N, 71.5000°W

Satellite Date Start Highest point End Downlink Frequencies (MHz)
Time Altitude Azimuth
PCSat 17 Oct 17:43:03 17:48:19 48° 53° (NE) 17:53:32 145.827
XW-2B 17 Oct 17:52:36 17:56:22 64° 75° (ENE) 18:00:09 145.730 - 145.750
NUDT-PHONESAT 17 Oct 17:53:32 17:57:06 45° 73° (ENE) 18:00:40 437.300
CUTE 1.7 + AOD 2 17 Oct 17:53:43 17:56:15 16° 64° (ENE) 17:58:46 437.475
nSIGHT-1 17 Oct 18:03:44 18:06:46 40° 220° (SW) 18:09:48 .
SO-50 17 Oct 18:04:40 18:06:59 14° 251° (WSW) 18:09:19 436.795
SEEDS 17 Oct 18:07:49 18:09:52 14° 63° (ENE) 18:11:57 437.485
CUBESAT XI-V 17 Oct 18:15:28 18:19:07 24° 294° (WNW) 18:22:45 437.345
XW-2C 17 Oct 18:15:39 18:19:25 64° 259° (WSW) 18:23:13 145.795 - 145.815
CUTE-I 17 Oct 18:18:31 18:23:49 83° 255° (WSW) 18:29:12 437.470
CUBEBUG 2 17 Oct 18:19:11 18:22:30 20° 64° (ENE) 18:25:52 437.445
KKS-1 17 Oct 18:26:20 18:30:44 56° 288° (WNW) 18:35:07 437.445
ISS 17 Oct 18:28:27 18:31:18 27° 223° (SW) 18:34:09 437.550
HO-68 17 Oct 18:35:09 18:42:10 62° 69° (ENE) 18:49:15 435.675
AAUSAT CUBESAT 2 17 Oct 18:41:38 18:43:45 14° 63° (ENE) 18:45:50 437.432
XW-2A 17 Oct 18:45:51 18:48:08 17° 67° (ENE) 18:50:24 145.665 - 145.685
ZACube-1 17 Oct 18:50:30 18:52:38 13° 61° (ENE) 18:54:46 437.345
LilacSat-2 17 Oct 19:03:16 19:05:50 17° 267° (W) 19:08:24 437.200
UWE-3 17 Oct 19:03:16 19:07:19 31° 68° (ENE) 19:11:25 435.000/436.395/437.385
XW-2F 17 Oct 19:04:54 19:07:34 18° 267° (W) 19:10:14 145.980 - 146.000
STARS 17 Oct 19:08:27 19:12:44 48° 289° (WNW) 19:17:00 437.465
KAITUO 1B 17 Oct 19:08:33 19:11:23 20° 266° (W) 19:14:13 145.475/437.950
YUBILEINY 17 Oct 19:12:09 19:17:52 18° 59° (ENE) 19:23:35 435.215
XW-2D 17 Oct 19:15:39 19:17:27 13° 269° (W) 19:19:16 145.860 - 145.880
STRAND 1 17 Oct 19:24:47 19:28:57 24° 94° (E) 19:33:06 437.568
PCSat 17 Oct 19:27:00 19:31:25 26° 252° (WSW) 19:35:49 145.827
CUTE 1.7 + AOD 2 17 Oct 19:27:33 19:31:40 50° 261° (W) 19:35:48 437.475
NUDT-PHONESAT 17 Oct 19:29:33 19:31:11 12° 269° (W) 19:32:50 437.300
Oscar 11 17 Oct 19:31:55 19:35:04 20° 66° (ENE) 19:38:13 .
SEEDS 17 Oct 19:40:57 19:45:04 58° 260° (W) 19:49:12 437.485
CUBEBUG 2 17 Oct 19:54:14 19:58:43 49° 262° (W) 20:03:19 437.445
AO-73 17 Oct 20:03:42 20:08:12 62° 74° (ENE) 20:12:44 145.935
CUTE-I 17 Oct 20:04:11 20:04:39 10° 273° (W) 20:05:09 437.470
AAUSAT CUBESAT 2 17 Oct 20:14:42 20:18:43 55° 260° (W) 20:22:46 437.432
FO-29 17 Oct 20:16:19 20:20:52 18° 90° (E) 20:25:39 435.910
XW-2A 17 Oct 20:17:38 20:20:37 28° 263° (W) 20:23:38 145.665 - 145.685
ZACube-1 17 Oct 20:23:43 20:28:17 74° 259° (WSW) 20:32:54 437.345
HO-68 17 Oct 20:24:34 20:30:21 26° 267° (W) 20:36:11 435.675
DELFI C3 17 Oct 20:38:09 20:41:03 20° 67° (ENE) 20:43:58 145.870
Max Valier Satellite 17 Oct 20:38:23 20:40:26 14° 65° (ENE) 20:42:30 145.860
UWE-3 17 Oct 20:39:42 20:43:42 29° 265° (W) 20:47:47 435.000/436.395/437.385
O/OREOS (USA 219) 17 Oct 20:42:40 20:46:26 26° 103° (ESE) 20:50:14 437.305
BEESAT 3 17 Oct 20:56:05 20:59:31 27° 47° (NE) 21:02:52 437.485
STRAND 1 17 Oct 21:03:25 21:08:17 43° 291° (WNW) 21:13:08 437.568
Oscar 11 17 Oct 21:06:50 21:10:55 40° 262° (W) 21:15:01 .
YUBILEINY 17 Oct 21:07:19 21:16:10 83° 82° (E) 21:25:00 435.215
UNISAT 6 17 Oct 21:24:35 21:26:34 13° 89° (E) 21:28:30 437.425
TIGRISAT 17 Oct 21:39:27 21:42:25 17° 91° (E) 21:45:20 435.000
AO-73 17 Oct 21:42:27 21:44:49 14° 270° (W) 21:47:11 145.935
AO-85 17 Oct 21:44:52 21:48:35 25° 45° (NE) 21:52:30 145.980
FO-29 17 Oct 21:59:42 22:06:26 85° 284° (WNW) 22:13:57 435.910
EO-88 17 Oct 22:07:32 22:11:09 64° 259° (W) 22:14:48 145.990 - 145.960
BEESAT 2 17 Oct 22:09:01 22:12:55 44° 51° (NE) 22:16:45 435.950
Max Valier Satellite 17 Oct 22:10:20 22:13:54 42° 262° (W) 22:17:29 145.860
DELFI C3 17 Oct 22:12:08 22:15:37 31° 264° (W) 22:19:07 145.870
O/OREOS (USA 219) 17 Oct 22:21:34 22:25:42 33° 301° (WNW) 22:29:52 437.305
BEESAT 3 17 Oct 22:33:32 22:37:03 31° 245° (WSW) 22:40:30 437.485
ESTCUBE 1 17 Oct 22:40:08 22:44:02 30° 68° (ENE) 22:47:57 437.505/2401.250
UNISAT 6 17 Oct 22:59:07 23:03:45 68° 286° (WNW) 23:08:16 437.425
YUBILEINY 17 Oct 23:05:46 23:11:51 21° 282° (WNW) 23:17:56 435.215
LO-87 17 Oct 23:06:55 23:10:29 83° 76° (ENE) 23:14:07 145.935 - 145.965
TIGRISAT 17 Oct 23:14:53 23:19:25 51° 288° (WNW) 23:23:48 435.000
QB50P2 17 Oct 23:24:15 23:24:41 10° 89° (E) 23:25:07 145.880/145.840
PRISM 17 Oct 23:24:34 23:28:41 80° 285° (WNW) 23:32:49 437.425
AO-85 17 Oct 23:24:46 23:29:11 48° 241° (WSW) 23:33:54 145.980
DUCHIFAT 1 17 Oct 23:42:10 23:43:37 11° 89° (E) 23:45:03 145.980
FO-29 17 Oct 23:46:30 23:50:43 18° 302° (WNW) 23:55:12 435.910
BEESAT 2 17 Oct 23:47:32 23:50:19 18° 249° (WSW) 23:53:03 435.950
SPROUT 17 Oct 23:57:06 00:01:12 47° 72° (ENE) 00:05:20 437.525
DX 1 18 Oct 00:02:27 00:03:19 11° 59° (ENE) 00:04:10 434.975-435.025
ESTCUBE 1 18 Oct 00:16:59 00:20:49 27° 265° (W) 00:24:39 437.505/2401.250
VELOX 1 18 Oct 00:18:53 00:23:11 58° 73° (ENE) 00:27:30 145.980
AIST 2D 18 Oct 00:21:54 00:25:19 56° 285° (WNW) 00:28:42 435.315
UKube-1 18 Oct 00:31:19 00:33:30 14° 61° (ENE) 00:35:40 .
EO-79 18 Oct 00:32:46 00:36:59 55° 100° (E) 00:41:09 145.935-145.965
50 SAT 18 Oct 00:33:37 00:36:01 19° 68° (ENE) 00:38:26 437.505
RS-15 18 Oct 00:34:12 00:45:34 47° 109° (ESE) 00:56:57 29.354- 29.394
POLYITAN 1 18 Oct 00:36:37 00:40:52 60° 100° (E) 00:45:04 437.675
QB50P2 18 Oct 00:56:40 01:00:57 73° 285° (WNW) 01:05:11 145.880/145.840
Oscar 19 18 Oct 01:02:22 01:04:41 13° 89° (E) 01:06:58 437.125/150
NANOSAT C BR1 18 Oct 01:03:00 01:07:16 77° 285° (WNW) 01:11:29 145.865
Gurwin Techsat 1B 18 Oct 01:11:14 01:12:36 11° 87° (E) 01:13:57 435.225
DUCHIFAT 1 18 Oct 01:15:28 01:19:42 64° 286° (WNW) 01:23:52 145.980
DX 1 18 Oct 01:34:29 01:38:48 85° 254° (WSW) 01:43:10 434.975-435.025
SPROUT 18 Oct 01:34:43 01:37:21 16° 269° (W) 01:39:58 437.525
BUGSAT 1 18 Oct 01:34:50 01:39:01 53° 100° (E) 01:43:06 437.445
VELOX 1 18 Oct 01:57:50 01:59:59 13° 269° (W) 02:02:10 145.980
MOZHAYETS 4 18 Oct 02:02:17 02:05:29 19° 64° (ENE) 02:08:41
ITUPSAT 1 18 Oct 02:04:05 02:07:25 19° 62° (ENE) 02:10:45 437.325
UKube-1 18 Oct 02:04:45 02:09:00 62° 259° (WSW) 02:13:17 .
50 SAT 18 Oct 02:05:39 02:08:14 21° 264° (W) 02:10:50 437.505
EO-79 18 Oct 02:09:51 02:12:17 15° 297° (WNW) 02:14:41 145.935-145.965
POLYITAN 1 18 Oct 02:13:57 02:16:08 14° 298° (WNW) 02:18:18 437.675
BEESAT 18 Oct 02:20:46 02:24:45 27° 66° (ENE) 02:28:46 436.000
Oscar 19 18 Oct 02:39:26 02:44:34 77° 286° (WNW) 02:49:41 437.125/150
RS-15 18 Oct 02:45:39 02:57:49 61° 313° (NW) 03:09:57 29.354- 29.394
Gurwin Techsat 1B 18 Oct 02:47:55 02:53:17 88° 105° (ESE) 02:58:36 435.225
M-CUBED/EXP-1 PRIME 18 Oct 02:50:22 02:53:49 66° 289° (WNW) 02:57:29 437.505
ITAMSAT 1 18 Oct 03:08:02 03:10:14 13° 89° (E) 03:12:26 435.822/435.867
NO-84 18 Oct 03:11:14 03:14:05 17° 125° (SE) 03:16:55 435.350 FM
BUGSAT 1 18 Oct 03:11:27 03:13:55 15° 297° (WNW) 03:16:20 437.445
AO-7 18 Oct 03:19:36 03:26:35 29° 95° (E) 03:33:30 .
MOZHAYETS 4 18 Oct 03:37:45 03:42:15 50° 261° (W) 03:46:47
ITUPSAT 1 18 Oct 03:40:08 03:44:49 53° 259° (W) 03:49:33 437.325
CUBESAT XI-V 18 Oct 03:41:34 03:45:53 40° 71° (ENE) 03:50:13 437.345
KKS-1 18 Oct 03:50:22 03:53:07 16° 62° (ENE) 03:55:51 437.445
BEESAT 18 Oct 03:58:02 04:02:23 35° 263° (W) 04:06:47 436.000
Oscar 19 18 Oct 04:21:42 04:23:00 11° 304° (NW) 04:24:18 437.125/150
Gurwin Techsat 1B 18 Oct 04:29:49 04:32:28 14° 302° (WNW) 04:35:07 435.225
STARS 18 Oct 04:30:53 04:33:47 18° 63° (ENE) 04:36:42 437.465
ITAMSAT 1 18 Oct 04:45:03 04:50:19 82° 287° (WNW) 04:55:33 435.822/435.867
NO-84 18 Oct 04:46:48 04:51:07 76° 322° (NW) 04:55:18 435.350 FM
DOVE 4 18 Oct 05:01:12 05:05:03 22° 93° (E) 05:09:00 437.250
RS-15 18 Oct 05:03:22 05:13:33 29° 343° (NNW) 05:23:35 29.354- 29.394
AO-7 18 Oct 05:11:40 05:19:51 66° 294° (WNW) 05:28:02 .
CUBESAT XI-V 18 Oct 05:19:52 05:23:24 21° 267° (W) 05:26:55 437.345
KKS-1 18 Oct 05:24:53 05:29:13 54° 259° (W) 05:33:36 437.445
XW-2C 18 Oct 05:49:00 05:50:25 12° 91° (E) 05:51:50 145.795 - 145.815
STARS 18 Oct 06:05:30 06:09:44 48° 260° (W) 06:14:01 437.465
NO-84 18 Oct 06:25:45 06:29:04 22° 340° (NNW) 06:32:17 435.350 FM
ITAMSAT 1 18 Oct 06:26:56 06:28:56 12° 304° (WNW) 06:30:56 435.822/435.867
LilacSat-2 18 Oct 06:33:58 06:37:36 44° 99° (E) 06:41:12 437.200
XW-2F 18 Oct 06:34:38 06:38:09 39° 98° (E) 06:41:39 145.980 - 146.000
CUTE-I 18 Oct 06:34:45 06:39:43 36° 97° (E) 06:44:38 437.470
KAITUO 1B 18 Oct 06:37:39 06:41:00 32° 97° (E) 06:44:20 145.475/437.950
DOVE 4 18 Oct 06:38:11 06:42:51 45° 288° (WNW) 06:47:44 437.250
SO-50 18 Oct 06:38:59 06:41:59 18° 111° (ESE) 06:44:59 436.795
STRAND 1 18 Oct 06:41:18 06:46:00 38° 68° (ENE) 06:50:44 437.568
XW-2D 18 Oct 06:44:42 06:48:25 59° 101° (E) 06:52:06 145.860 - 145.880
O/OREOS (USA 219) 18 Oct 06:50:53 06:55:26 59° 64° (ENE) 06:59:58 437.305
NUDT-PHONESAT 18 Oct 06:56:12 06:59:48 54° 99° (E) 07:03:23 437.300
XW-2B 18 Oct 06:58:02 07:01:48 84° 102° (ESE) 07:05:32 145.730 - 145.750
AO-7 18 Oct 07:06:24 07:11:05 17° 315° (NW) 07:15:47 .
CUTE 1.7 + AOD 2 18 Oct 07:11:40 07:15:08 24° 95° (E) 07:18:34 437.475
RS-15 18 Oct 07:21:06 07:31:17 29° 18° (NNE) 07:41:05 29.354- 29.394
XW-2C 18 Oct 07:21:15 07:24:52 47° 287° (WNW) 07:28:28 145.795 - 145.815
SEEDS 18 Oct 07:24:14 07:27:24 21° 93° (E) 07:30:32 437.485
XW-2A 18 Oct 07:38:51 07:40:45 14° 93° (E) 07:42:39 145.665 - 145.685
CUBEBUG 2 18 Oct 07:44:13 07:48:30 34° 96° (E) 07:52:38 437.445
HO-68 18 Oct 07:49:13 07:56:22 60° 102° (ESE) 08:03:27 435.675
AO-73 18 Oct 07:53:32 07:54:32 11° 88° (E) 07:55:31 145.935
AAUSAT CUBESAT 2 18 Oct 07:56:13 07:59:20 20° 93° (E) 08:02:26 437.432
NO-84 18 Oct 08:05:22 08:07:41 15° 1° (N) 08:09:55 435.350 FM
LilacSat-2 18 Oct 08:09:32 08:11:28 14° 296° (WNW) 08:13:25 437.200
XW-2F 18 Oct 08:09:46 08:11:56 15° 295° (WNW) 08:14:07 145.980 - 146.000
ZACube-1 18 Oct 08:12:01 08:15:17 20° 92° (E) 08:18:30 437.345
KAITUO 1B 18 Oct 08:12:17 08:14:44 17° 294° (WNW) 08:17:11 145.475/437.950
FO-29 18 Oct 08:14:12 08:19:04 42° 68° (ENE) 08:24:16 435.910
CUTE-I 18 Oct 08:14:58 08:19:38 31° 294° (WNW) 08:24:18 437.470
YUBILEINY 18 Oct 08:16:31 08:22:01 19° 77° (ENE) 08:27:30 435.215
SO-50 18 Oct 08:17:37 08:22:01 54° 309° (NW) 08:26:27 436.795
STRAND 1 18 Oct 08:20:55 08:25:15 27° 265° (W) 08:29:37 437.568
XW-2D 18 Oct 08:21:08 08:22:05 11° 297° (WNW) 08:23:01 145.860 - 145.880
UNISAT 6 18 Oct 08:24:14 08:26:35 14° 61° (ENE) 08:28:57 437.425
PCSat 18 Oct 08:25:48 08:30:40 35° 111° (ESE) 08:35:33 145.827
UWE-3 18 Oct 08:27:42 08:32:12 56° 100° (E) 08:36:32 435.000/436.395/437.385
O/OREOS (USA 219) 18 Oct 08:31:50 08:34:19 14° 262° (W) 08:36:47 437.305
NUDT-PHONESAT 18 Oct 08:32:06 08:33:11 11° 297° (WNW) 08:34:15 437.300
TIGRISAT 18 Oct 08:38:55 08:42:00 18° 63° (ENE) 08:45:05 435.000
CUTE 1.7 + AOD 2 18 Oct 08:47:19 08:50:57 29° 291° (WNW) 08:54:34 437.475
Oscar 11 18 Oct 08:52:55 08:56:49 33° 97° (E) 09:00:42 .
SEEDS 18 Oct 08:59:23 09:03:09 33° 289° (WNW) 09:06:53 437.485
XW-2A 18 Oct 09:10:34 09:13:33 30° 289° (WNW) 09:16:30 145.665 - 145.685
CUBEBUG 2 18 Oct 09:21:04 09:24:56 26° 293° (WNW) 09:28:41 437.445
AO-73 18 Oct 09:26:54 09:31:17 71° 285° (WNW) 09:35:32 145.935
AAUSAT CUBESAT 2 18 Oct 09:31:07 09:34:50 33° 290° (WNW) 09:38:32 437.432
RS-15 18 Oct 09:34:46 09:46:45 65° 49° (NE) 09:58:02 29.354- 29.394
HO-68 18 Oct 09:37:39 09:43:38 29° 301° (WNW) 09:49:37 435.675
Max Valier Satellite 18 Oct 09:40:06 09:42:21 15° 92° (E) 09:44:35 145.860
NO-84 18 Oct 09:42:59 09:46:14 24° 22° (NNE) 09:49:15 435.350 FM
ZACube-1 18 Oct 09:47:37 09:51:43 38° 290° (WNW) 09:55:41 437.345
DELFI C3 18 Oct 09:47:37 09:51:03 28° 96° (E) 09:54:28 145.870
UNISAT 6 18 Oct 09:58:03 10:02:39 72° 258° (WSW) 10:07:22 437.425
FO-29 18 Oct 10:00:18 10:04:27 24° 268° (W) 10:08:49 435.910
SO-50 18 Oct 10:02:11 10:03:30 11° 329° (NNW) 10:04:49 436.795
UWE-3 18 Oct 10:05:23 10:08:09 16° 297° (WNW) 10:10:52 435.000/436.395/437.385
YUBILEINY 18 Oct 10:08:50 10:17:32 89° 277° (W) 10:26:19 435.215
PCSat 18 Oct 10:09:01 10:14:02 37° 310° (NW) 10:19:03 145.827
TIGRISAT 18 Oct 10:13:41 10:18:13 54° 260° (W) 10:22:50 435.000
PRISM 18 Oct 10:14:10 10:18:13 80° 74° (ENE) 10:22:17 437.425
Oscar 11 18 Oct 10:29:23 10:32:47 23° 293° (WNW) 10:36:10 .
DUCHIFAT 1 18 Oct 10:35:40 10:36:39 11° 60° (ENE) 10:37:37 145.980
nSIGHT-1 18 Oct 10:42:00 10:44:54 32° 138° (SE) 10:47:48 .
AIST 2D 18 Oct 10:56:23 10:59:48 52° 75° (ENE) 11:03:14 435.315
ISS 18 Oct 11:08:17 11:11:27 51° 142° (SE) 11:14:38 437.550
EO-88 18 Oct 11:08:37 11:12:10 54° 286° (WNW) 11:15:42 145.990 - 145.960
Max Valier Satellite 18 Oct 11:12:55 11:16:18 35° 289° (WNW) 11:19:39 145.860
NO-84 18 Oct 11:20:14 11:23:58 68° 223° (SW) 11:27:22 435.350 FM
DELFI C3 18 Oct 11:22:32 11:25:40 23° 292° (WNW) 11:28:48 145.870
EO-79 18 Oct 11:25:36 11:29:39 45° 72° (ENE) 11:33:44 145.935-145.965
POLYITAN 1 18 Oct 11:29:32 11:33:40 49° 72° (ENE) 11:37:50 437.675
RS-15 18 Oct 11:48:00 11:58:34 41° 253° (WSW) 12:08:41 29.354- 29.394
QB50P2 18 Oct 11:49:28 11:53:45 89° 253° (WSW) 11:58:04 145.880/145.840
NANOSAT C BR1 18 Oct 11:55:15 11:59:31 85° 73° (ENE) 12:03:48 145.865
M-CUBED/EXP-1 PRIME 18 Oct 12:05:01 12:06:33 13° 60° (ENE) 12:08:04 437.505
LO-87 18 Oct 12:05:55 12:09:34 89° 280° (W) 12:13:12 145.935 - 145.965
DUCHIFAT 1 18 Oct 12:07:24 12:11:38 80° 257° (WSW) 12:15:56 145.980
ESTCUBE 1 18 Oct 12:07:29 12:11:54 57° 101° (E) 12:16:18 437.505/2401.250
YUBILEINY 18 Oct 12:09:39 12:15:39 20° 299° (WNW) 12:21:43 435.215
nSIGHT-1 18 Oct 12:18:10 12:21:09 36° 336° (NNW) 12:24:09 .
Oscar 19 18 Oct 12:19:20 12:23:19 23° 63° (ENE) 12:27:18 437.125/150
BEESAT 3 18 Oct 12:23:13 12:26:46 31° 115° (ESE) 12:30:21 437.485
BUGSAT 1 18 Oct 12:24:58 12:28:52 41° 71° (ENE) 12:32:52 437.445
Gurwin Techsat 1B 18 Oct 12:31:49 12:35:46 22° 62° (ENE) 12:39:43 435.225
AO-7 18 Oct 12:34:26 12:36:28 11° 38° (NE) 12:38:29 .
ISS 18 Oct 12:45:10 12:48:04 29° 340° (NNW) 12:50:59 437.550
EO-79 18 Oct 13:02:54 13:05:38 17° 268° (W) 13:08:24 145.935-145.965
POLYITAN 1 18 Oct 13:07:12 13:09:43 15° 269° (W) 13:12:15 437.675
SPROUT 18 Oct 13:17:10 13:21:30 82° 105° (ESE) 13:25:47 437.525
DX 1 18 Oct 13:22:52 13:25:28 15° 92° (E) 13:28:03 434.975-435.025
50 SAT 18 Oct 13:23:46 13:25:47 15° 94° (E) 13:27:47 437.505
M-CUBED/EXP-1 PRIME 18 Oct 13:37:27 13:40:43 39° 255° (WSW) 13:43:52 437.505
BEESAT 2 18 Oct 13:37:45 13:41:42 59° 119° (ESE) 13:45:41 435.950
AO-85 18 Oct 13:40:25 13:44:03 40° 117° (ESE) 13:47:46 145.980
VELOX 1 18 Oct 13:43:55 13:48:22 79° 284° (WNW) 13:52:48 145.980
ESTCUBE 1 18 Oct 13:45:34 13:48:15 16° 297° (WNW) 13:50:54 437.505/2401.250
UKube-1 18 Oct 13:51:23 13:54:33 20° 94° (E) 13:57:42 .
nSIGHT-1 18 Oct 13:55:49 13:58:05 17° 356° (N) 14:00:21 .
Oscar 19 18 Oct 13:57:19 14:02:19 48° 261° (W) 14:07:19 437.125/150
BEESAT 3 18 Oct 14:00:49 14:04:18 27° 313° (NW) 14:07:48 437.485
BUGSAT 1 18 Oct 14:01:34 14:04:24 18° 268° (W) 14:07:17 437.445
Gurwin Techsat 1B 18 Oct 14:10:07 14:15:18 54° 259° (W) 14:20:32 435.225
AO-7 18 Oct 14:19:24 14:27:07 45° 61° (ENE) 14:34:49 .
ISS 18 Oct 14:22:58 14:25:17 18° 360° (N) 14:27:36 437.550
ITAMSAT 1 18 Oct 14:26:02 14:30:02 23° 63° (ENE) 14:34:04 435.822/435.867
50 SAT 18 Oct 14:55:16 14:58:09 28° 289° (WNW) 15:01:02 437.505
SPROUT 18 Oct 14:55:43 14:56:42 11° 300° (WNW) 14:57:42 437.525
DX 1 18 Oct 14:57:40 15:01:56 51° 288° (WNW) 15:06:10 434.975-435.025
SO-50 18 Oct 15:07:48 15:11:37 25° 43° (NE) 15:15:29 436.795
BEESAT 2 18 Oct 15:16:59 15:19:47 18° 319° (NW) 15:22:36 435.950
AO-85 18 Oct 15:21:33 15:24:36 21° 317° (NW) 15:27:43 145.980
UKube-1 18 Oct 15:26:41 15:30:42 39° 290° (WNW) 15:34:43 .
MOZHAYETS 4 18 Oct 15:31:48 15:36:00 34° 97° (E) 15:40:09
nSIGHT-1 18 Oct 15:32:30 15:35:10 23° 16° (NNE) 15:37:49 .
ITUPSAT 1 18 Oct 15:39:39 15:44:04 35° 97° (E) 15:48:27 437.325
BEESAT 18 Oct 15:56:32 16:01:14 53° 100° (E) 16:05:54 436.000
ISS 18 Oct 15:59:35 16:02:31 29° 20° (NNE) 16:05:26 437.550
ITAMSAT 1 18 Oct 16:04:10 16:09:10 49° 260° (W) 16:14:13 435.822/435.867
DOVE 4 18 Oct 16:08:22 16:11:27 20° 65° (ENE) 16:14:38 437.250
AO-7 18 Oct 16:12:01 16:19:50 45° 260° (W) 16:27:42 .
HO-68 18 Oct 16:38:34 16:39:20 10° 45° (NE) 16:40:05 435.675
SO-50 18 Oct 16:47:52 16:52:17 47° 242° (WSW) 16:56:46 436.795
nSIGHT-1 18 Oct 17:08:32 17:11:45 82° 212° (SSW) 17:14:56 .
MOZHAYETS 4 18 Oct 17:09:14 17:12:59 25° 294° (WNW) 17:16:41
PCSat 18 Oct 17:12:17 17:17:18 36° 50° (NE) 17:22:17 145.827
CUBESAT XI-V 18 Oct 17:13:50 17:18:28 88° 104° (ESE) 17:23:04 437.345
KKS-1 18 Oct 17:15:03 17:18:49 26° 95° (E) 17:22:33 437.445
XW-2F 18 Oct 17:16:27 17:19:26 22° 68° (ENE) 17:22:24 145.980 - 146.000
LilacSat-2 18 Oct 17:16:43 17:19:55 26° 70° (ENE) 17:23:07 437.200
ITUPSAT 1 18 Oct 17:17:45 17:21:44 27° 294° (WNW) 17:25:42 437.325
KAITUO 1B 18 Oct 17:18:49 17:21:28 19° 67° (ENE) 17:24:06 145.475/437.950
XW-2D 18 Oct 17:26:35 17:29:59 32° 71° (ENE) 17:33:23 145.860 - 145.880
